Preview of NWS' New Version of Forecast
This preview is not operational and should not be used for support decisions.

Regional Weather Roundup (RWR)

Issued by Philadelphia/Mt Holly (PHI)

                            
000
ASUS41 KPHI 260412
RWRPHI

REGIONAL WEATHER ROUNDUP
NATIONAL WEATHER SERVICE MOUNT HOLLY NJ
1200 AM EDT SUN MAY 26 2019

NOTE:  "FAIR" INDICATES FEW OR NO CLOUDS BELOW 12,000 FEET WITH NO
SIGNIFICANT WEATHER AND/OR OBSTRUCTIONS TO VISIBILITY.

 * = STATION DOES NOT REPORT PRECIPITATION (E.G. RAIN, SNOW, ETC.) 
        OR FOG.

NJZ015>026-260500-
SOUTHERN NEW JERSEY
  
CITY           SKY/WX    TMP DP  RH WIND       PRES   REMARKS
POMONA         CLOUDY    64  59  83 S9        30.06F                  
WILDWOOD*      FAIR      65  61  87 S15       30.06F                  
MILLVILLE      FAIR      64  60  87 VRB3      30.05F                  
MOUNT HOLLY    MOCLDY    62  55  77 CALM      30.06F                  
TRENTON        MOCLDY    61  53  75 S6        30.06F                  

$$
NJZ001>014-260500-
NORTHERN NEW JERSEY
  
CITY           SKY/WX    TMP DP  RH WIND       PRES   REMARKS
SUSSEX         MOCLDY    63  54  72 VRB3      30.03F                  
ANDOVER*         N/A     62  52  69 VRB5      30.04F                  
MORRISTOWN     CLOUDY    63  52  67 S5        30.05F                  
NEWARK         CLOUDY    63  51  65 S13       30.06F                  
TETERBORO      CLOUDY    62  53  72 S9        30.05F                  
CALDWELL       CLOUDY    64  51  62 VRB3      30.06F                  
SOMERVILLE     CLOUDY    63  52  67 S3        30.04F                  
ALLAIRE*       MOCLDY    61  53  75 SW7       30.08F                  
TOMS RIVER*    MOCLDY    61  56  83 S6        30.07F                  

$$
PAZ043-044-047-054-055-060>062-066>071-260500-
EASTERN PENNSYLVANIA
  
CITY           SKY/WX    TMP DP  RH WIND       PRES   REMARKS
PHILADELPHIA   MOCLDY    64  57  78 S7        30.05F                  
NORTH PHILA    MOCLDY    65  54  67 CALM      30.07F                  
BLUE BELL*     FAIR      63  56  80 SE6       30.06F                  
DOYLESTOWN     FAIR      63  52  67 S3        30.04F                  
QUAKERTOWN*    PTCLDY    63  55  77 S3        30.05                   
PERKASIE*      CLOUDY    63  55  77 CALM      30.06F                  
POTTSTOWN      FAIR      62  54  74 VRB3      30.06F                  
LANCASTER      LGT RAIN  63  60  90 NE3       30.06R                  
COATESVILLE    FAIR      61  57  88 CALM      30.06F                  
WEST CHESTER   FAIR      63  57  82 SE5       30.05F                  
READING        LGT RAIN  64  59  83 S3        30.04F                  
ALLENTOWN      LGT RAIN  64  56  75 SW8       30.05F                  
QN CITY/ALNTWN MOCLDY    63  55  77 SW8       30.06F                  
MOUNT POCONO   LGT RAIN  58  56  93 SW9       30.06S                  
HAZLETON       LGT RAIN  59  57  94 SE3       30.07F                  
LEHIGHTON      RAIN      63  57  82 CALM      30.06R                  
WILKES BARRE   HVY RAIN  63  61  93 VRB3      30.02S FOG              

$$
DEZALL-MDZ008-012-015-019-020-260500-
DELAWARE AND EASTERN MARYLAND
  
CITY           SKY/WX    TMP DP  RH WIND       PRES   REMARKS
WILMINGTON     FAIR      65  60  84 S6        30.05F                  
DOVER          CLEAR     66  61  82 S7        30.03F                  
CHESWOLD         N/A     66  61  82 CALM      30.04F                  
GEORGETOWN     FAIR      69  63  81 S12       30.05F                  
EASTON         FAIR      71  65  83 S10       30.08S                  
STEVENSVILLE   MOCLDY    70  68  94 S12G18    30.03S                  
PATUXENT       FAIR      71  69  93 S5        30.04                   
OCEAN CITY     FAIR      68  63  84 SW13G21   30.08F                  
WALLOPS ISLAND FAIR      70  66  87 S13       30.08F                  
CAMBRIDGE      PTCLDY    70  66  88 S9        30.04F                  
SALISBURY      FAIR      69  65  86 S9        30.06F                  

$$
PAZ001-021-NYZ056-072-MDZ011-DCZ001-260500-
OTHER NEARBY LOCATIONS
  
CITY           SKY/WX    TMP DP  RH WIND       PRES   REMARKS
HARRISBURG     CLOUDY    68  65  90 SE5       30.02F                  
STATE COLLEGE  FAIR      66  64  93 SW7       30.01F                  
WILLIAMSPORT   CLOUDY    66  64  93 CALM      29.98F                  
BINGHAMTON     LGT RAIN  61  60  97 SW7       29.98S                  
NEW YORK CITY  CLOUDY    62  53  72 CALM      30.09F                  
BALTIMORE      MOCLDY    69  64  84 NW5       30.04S THUNDER          
WASHINGTON DC  MOCLDY    72  65  78 S12       30.02F                  

$$